EWG6TZ EDDK-LFPO

Flight info

Callsign EWG6TZ
Flight time 0h 51m
Altitude 24000
Route NVO2R NVO DCT RENSA
Aircraft A320/M-SDE3FGHIRWY/LB1

Departure

Time 2026-04-24 16:01
Airport Cologne Bonn Airport (EDDK)

Arrival

Time 2026-04-24 16:52
Airport Paris-Orly Airport (LFPO)
Time Latitude Longitude Altitude Speed Heading
2026-04-24 15:33 50.88170 7.11945 230 ft 0 kts 216°
2026-04-24 15:45 50.88173 7.11948 230 ft 2 kts 216°
2026-04-24 15:46 50.88186 7.11964 232 ft 2 kts 216°
2026-04-24 15:46 50.88200 7.11980 234 ft 3 kts 205°
2026-04-24 15:46 50.88217 7.11987 234 ft 3 kts 168°
2026-04-24 15:46 50.88234 7.11980 232 ft 3 kts 141°
2026-04-24 15:47 50.88242 7.11967 232 ft 0 kts 121°
2026-04-24 15:52 50.88238 7.11979 232 ft 6 kts 122°
2026-04-24 15:52 50.88201 7.12070 230 ft 7 kts 124°
2026-04-24 15:52 50.88174 7.12129 230 ft 6 kts 126°
2026-04-24 15:52 50.88150 7.12181 230 ft 5 kts 126°
2026-04-24 15:53 50.88120 7.12242 230 ft 11 kts 129°
2026-04-24 15:53 50.88080 7.12362 230 ft 12 kts 124°
2026-04-24 15:53 50.88027 7.12460 230 ft 11 kts 135°
2026-04-24 15:53 50.87971 7.12542 230 ft 12 kts 138°
2026-04-24 15:54 50.87892 7.12609 230 ft 13 kts 178°
2026-04-24 15:54 50.87810 7.12642 230 ft 12 kts 143°
2026-04-24 15:54 50.87747 7.12728 230 ft 12 kts 141°
2026-04-24 15:54 50.87690 7.12812 230 ft 11 kts 137°
2026-04-24 15:55 50.87613 7.12924 230 ft 19 kts 137°
2026-04-24 15:55 50.87543 7.13026 231 ft 21 kts 137°
2026-04-24 15:55 50.87443 7.13170 232 ft 18 kts 137°
2026-04-24 15:55 50.87312 7.13361 235 ft 21 kts 137°
2026-04-24 15:56 50.87209 7.13508 238 ft 18 kts 137°
2026-04-24 15:56 50.87150 7.13595 239 ft 16 kts 137°
2026-04-24 15:56 50.87027 7.13774 243 ft 19 kts 137°
2026-04-24 15:56 50.86966 7.13868 243 ft 18 kts 137°
2026-04-24 15:57 50.86878 7.13990 244 ft 16 kts 138°
2026-04-24 15:57 50.86811 7.14086 249 ft 11 kts 138°
2026-04-24 15:57 50.86737 7.14142 252 ft 11 kts 159°
2026-04-24 15:57 50.86673 7.14224 256 ft 14 kts 137°
2026-04-24 15:58 50.86581 7.14359 258 ft 22 kts 138°
2026-04-24 15:58 50.86454 7.14541 262 ft 24 kts 138°
2026-04-24 15:58 50.86336 7.14709 265 ft 21 kts 139°
2026-04-24 15:58 50.86239 7.14853 270 ft 17 kts 136°
2026-04-24 15:59 50.86157 7.14974 272 ft 15 kts 139°
2026-04-24 15:59 50.86092 7.15066 275 ft 11 kts 137°
2026-04-24 15:59 50.86045 7.15185 278 ft 17 kts 96°
2026-04-24 15:59 50.86097 7.15339 276 ft 16 kts 27°
2026-04-24 16:00 50.86215 7.15336 275 ft 19 kts 346°
2026-04-24 16:00 50.86354 7.15293 269 ft 23 kts 351°
2026-04-24 16:00 50.86466 7.15202 268 ft 18 kts 316°
2026-04-24 16:00 50.86680 7.14883 259 ft 79 kts 317°
2026-04-24 16:01 50.87250 7.14060 254 ft 140 kts 317°
2026-04-24 16:01 50.88038 7.12924 698 ft 154 kts 317°
2026-04-24 16:01 50.88842 7.11772 1511 ft 156 kts 318°
2026-04-24 16:01 50.89681 7.10576 2165 ft 173 kts 318°
2026-04-24 16:02 50.90565 7.09119 2588 ft 194 kts 305°
2026-04-24 16:02 50.91076 7.07040 3133 ft 211 kts 281°
2026-04-24 16:02 50.91034 7.04723 4011 ft 219 kts 260°
2026-04-24 16:02 50.90548 7.02354 4693 ft 237 kts 254°
2026-04-24 16:03 50.89982 6.99737 5017 ft 267 kts 254°
2026-04-24 16:03 50.89381 6.96883 5080 ft 282 kts 254°
2026-04-24 16:03 50.88771 6.93930 6161 ft 277 kts 254°
2026-04-24 16:03 50.88171 6.91002 7184 ft 281 kts 254°
2026-04-24 16:04 50.87547 6.88045 8112 ft 286 kts 253°
2026-04-24 16:04 50.86897 6.85048 9071 ft 289 kts 253°
2026-04-24 16:04 50.86238 6.82022 10032 ft 293 kts 253°
2026-04-24 16:04 50.85559 6.78903 10634 ft 310 kts 253°
2026-04-24 16:05 50.84084 6.72066 11599 ft 343 kts 253°
2026-04-24 16:05 50.83311 6.68471 12447 ft 347 kts 252°
2026-04-24 16:06 50.80884 6.61834 14141 ft 355 kts 229°
2026-04-24 16:06 50.79074 6.59143 14892 ft 358 kts 223°
2026-04-24 16:06 50.75311 6.53888 16414 ft 363 kts 223°
2026-04-24 16:07 50.73418 6.51231 17143 ft 366 kts 223°
2026-04-24 16:07 50.71505 6.48546 17865 ft 369 kts 223°
2026-04-24 16:07 50.67636 6.43112 19181 ft 375 kts 223°
2026-04-24 16:08 50.65678 6.40374 19792 ft 378 kts 223°
2026-04-24 16:08 50.61711 6.34841 21032 ft 382 kts 223°
2026-04-24 16:09 50.57703 6.29267 22232 ft 387 kts 223°
2026-04-24 16:09 50.55703 6.26496 22822 ft 389 kts 223°
2026-04-24 16:09 50.53669 6.23679 23395 ft 391 kts 223°
2026-04-24 16:09 50.51623 6.20841 23932 ft 393 kts 223°
2026-04-24 16:10 50.45462 6.12332 24221 ft 391 kts 223°
2026-04-24 16:11 50.41373 6.06706 24217 ft 390 kts 222°
2026-04-24 16:11 50.39325 6.03897 24221 ft 390 kts 222°
2026-04-24 16:11 50.37280 6.01091 24217 ft 390 kts 222°
2026-04-24 16:12 50.33190 5.95473 24215 ft 391 kts 222°
2026-04-24 16:12 50.31142 5.92663 24215 ft 391 kts 222°
2026-04-24 16:12 50.27072 5.87097 24211 ft 391 kts 222°
2026-04-24 16:13 50.25019 5.84303 24209 ft 391 kts 222°
2026-04-24 16:13 50.20913 5.78719 24209 ft 391 kts 221°
2026-04-24 16:14 50.16805 5.73149 24202 ft 391 kts 221°
2026-04-24 16:14 50.14749 5.70364 24200 ft 391 kts 221°
2026-04-24 16:14 50.10641 5.64805 24200 ft 391 kts 221°
2026-04-24 16:15 50.09278 5.62966 24195 ft 391 kts 221°
2026-04-24 16:15 50.04488 5.56509 24193 ft 392 kts 221°
2026-04-24 16:16 50.00364 5.50951 24193 ft 392 kts 221°
2026-04-24 16:16 49.98298 5.48173 24194 ft 392 kts 221°
2026-04-24 16:17 49.92093 5.39858 24189 ft 392 kts 221°
2026-04-24 16:17 49.87956 5.34322 24184 ft 393 kts 221°
2026-04-24 16:18 49.83839 5.28832 24179 ft 393 kts 220°
2026-04-24 16:18 49.79689 5.23312 24179 ft 393 kts 220°
2026-04-24 16:18 49.77612 5.20555 24176 ft 393 kts 220°
2026-04-24 16:19 49.73454 5.15049 24178 ft 393 kts 220°
2026-04-24 16:19 49.71371 5.12297 24177 ft 394 kts 220°
2026-04-24 16:20 49.67207 5.06800 24174 ft 394 kts 220°
2026-04-24 16:20 49.63032 5.01307 24174 ft 394 kts 220°
2026-04-24 16:20 49.60944 4.98570 24169 ft 394 kts 220°
2026-04-24 16:21 49.56759 4.93080 24168 ft 395 kts 220°
2026-04-24 16:21 49.54843 4.90053 24165 ft 396 kts 230°
2026-04-24 16:21 49.53322 4.86514 24166 ft 397 kts 241°
2026-04-24 16:22 49.52245 4.82590 24078 ft 397 kts 251°
2026-04-24 16:22 49.50801 4.74588 23174 ft 385 kts 253°
2026-04-24 16:22 49.50091 4.70639 22704 ft 380 kts 253°
2026-04-24 16:23 49.49390 4.66748 22247 ft 375 kts 253°
2026-04-24 16:23 49.48694 4.62899 21782 ft 371 kts 253°
2026-04-24 16:23 49.47999 4.59092 21324 ft 368 kts 252°
2026-04-24 16:24 49.46624 4.51571 20382 ft 363 kts 253°
2026-04-24 16:24 49.45943 4.47846 19904 ft 361 kts 253°
2026-04-24 16:24 49.45264 4.44131 19420 ft 361 kts 253°
2026-04-24 16:24 49.44581 4.40415 18930 ft 360 kts 253°
2026-04-24 16:25 49.43899 4.36721 18434 ft 360 kts 253°
2026-04-24 16:25 49.43213 4.33017 17897 ft 359 kts 253°
2026-04-24 16:25 49.42532 4.29332 17420 ft 357 kts 253°
2026-04-24 16:26 49.41186 4.22076 16450 ft 354 kts 253°
2026-04-24 16:26 49.40512 4.18451 15972 ft 352 kts 253°
2026-04-24 16:26 49.39161 4.11238 15022 ft 351 kts 253°
2026-04-24 16:27 49.38485 4.07638 14548 ft 350 kts 253°
2026-04-24 16:27 49.37811 4.04038 14078 ft 350 kts 253°
2026-04-24 16:27 49.37137 4.00452 13750 ft 350 kts 253°
2026-04-24 16:27 49.36377 3.96915 13423 ft 348 kts 246°
2026-04-24 16:28 49.35303 3.93589 13083 ft 347 kts 242°
2026-04-24 16:28 49.34206 3.90299 12752 ft 346 kts 242°
2026-04-24 16:28 49.32027 3.83771 12116 ft 342 kts 242°
2026-04-24 16:29 49.30943 3.80522 11797 ft 341 kts 242°
2026-04-24 16:29 49.29881 3.77342 11542 ft 334 kts 242°
2026-04-24 16:29 49.27820 3.71225 11290 ft 312 kts 238°
2026-04-24 16:30 49.24862 3.66701 11030 ft 299 kts 208°
2026-04-24 16:30 49.23028 3.65217 10959 ft 298 kts 206°
2026-04-24 16:30 49.21189 3.63742 10899 ft 298 kts 206°
2026-04-24 16:31 49.19356 3.62265 10821 ft 298 kts 206°
2026-04-24 16:31 49.17529 3.60794 10737 ft 297 kts 206°
2026-04-24 16:31 49.15700 3.59323 10646 ft 296 kts 206°
2026-04-24 16:31 49.13914 3.57758 10554 ft 297 kts 214°
2026-04-24 16:32 49.12866 3.56416 10500 ft 298 kts 223°
2026-04-24 16:32 49.10901 3.53411 10385 ft 298 kts 223°
2026-04-24 16:32 49.09457 3.51213 10295 ft 297 kts 223°
2026-04-24 16:32 49.07991 3.48996 10207 ft 297 kts 223°
2026-04-24 16:33 49.06526 3.46787 10118 ft 296 kts 223°
2026-04-24 16:33 49.05063 3.44578 10025 ft 296 kts 223°
2026-04-24 16:33 49.03604 3.42378 9927 ft 295 kts 223°
2026-04-24 16:33 49.02145 3.40175 9848 ft 295 kts 223°
2026-04-24 16:34 49.00690 3.37978 9757 ft 295 kts 223°
2026-04-24 16:34 48.99234 3.35783 9672 ft 294 kts 223°
2026-04-24 16:34 48.97779 3.33596 9588 ft 294 kts 223°
2026-04-24 16:34 48.96324 3.31410 9494 ft 294 kts 223°
2026-04-24 16:35 48.94871 3.29230 9405 ft 293 kts 223°
2026-04-24 16:35 48.93420 3.27056 9316 ft 293 kts 223°
2026-04-24 16:35 48.91972 3.24883 9222 ft 292 kts 223°
2026-04-24 16:35 48.90524 3.22708 9138 ft 292 kts 223°
2026-04-24 16:36 48.89079 3.20541 9053 ft 291 kts 223°
2026-04-24 16:36 48.87635 3.18380 8965 ft 291 kts 223°
2026-04-24 16:36 48.86191 3.16222 8878 ft 291 kts 223°
2026-04-24 16:36 48.84746 3.14067 8790 ft 291 kts 222°
2026-04-24 16:37 48.83228 3.12054 8701 ft 288 kts 212°
2026-04-24 16:37 48.81524 3.10566 8619 ft 286 kts 206°
2026-04-24 16:37 48.80340 3.09600 8557 ft 286 kts 206°
2026-04-24 16:37 48.78021 3.07701 8448 ft 285 kts 206°
2026-04-24 16:38 48.76274 3.06269 8359 ft 285 kts 206°
2026-04-24 16:38 48.74530 3.04843 8240 ft 283 kts 206°
2026-04-24 16:38 48.72927 3.03090 8094 ft 287 kts 226°
2026-04-24 16:38 48.71761 3.00625 7946 ft 289 kts 238°
2026-04-24 16:39 48.70827 2.97926 7791 ft 290 kts 242°
2026-04-24 16:39 48.69941 2.95189 7644 ft 288 kts 242°
2026-04-24 16:39 48.69065 2.92454 7498 ft 288 kts 242°
2026-04-24 16:39 48.68192 2.89733 7363 ft 288 kts 242°
2026-04-24 16:40 48.67331 2.87039 7254 ft 288 kts 242°
2026-04-24 16:40 48.66742 2.85194 7172 ft 288 kts 242°
2026-04-24 16:40 48.66410 2.84155 7118 ft 289 kts 242°
2026-04-24 16:40 48.65542 2.81426 6999 ft 288 kts 242°
2026-04-24 16:41 48.64673 2.78703 6884 ft 287 kts 242°
2026-04-24 16:41 48.63803 2.76005 6759 ft 285 kts 242°
2026-04-24 16:41 48.62936 2.73304 6641 ft 284 kts 242°
2026-04-24 16:41 48.62072 2.70620 6516 ft 284 kts 242°
2026-04-24 16:42 48.61214 2.67929 6386 ft 284 kts 242°
2026-04-24 16:42 48.60651 2.66148 6300 ft 284 kts 242°
2026-04-24 16:42 48.59796 2.63458 6171 ft 284 kts 242°
2026-04-24 16:42 48.58941 2.60773 6044 ft 283 kts 242°
2026-04-24 16:43 48.58178 2.58036 5909 ft 285 kts 254°
2026-04-24 16:43 48.57859 2.55072 5790 ft 286 kts 262°
2026-04-24 16:43 48.57630 2.52082 5646 ft 286 kts 262°
2026-04-24 16:43 48.57409 2.49094 5531 ft 285 kts 262°
2026-04-24 16:44 48.57185 2.46120 5405 ft 285 kts 262°
2026-04-24 16:44 48.56965 2.43142 5271 ft 285 kts 262°
2026-04-24 16:44 48.56745 2.40164 5155 ft 284 kts 262°
2026-04-24 16:44 48.56528 2.37198 5031 ft 285 kts 262°
2026-04-24 16:45 48.56313 2.34274 4906 ft 283 kts 262°
2026-04-24 16:45 48.56093 2.31314 4779 ft 283 kts 262°
2026-04-24 16:45 48.55867 2.28364 4649 ft 283 kts 262°
2026-04-24 16:45 48.55631 2.25408 4525 ft 283 kts 262°
2026-04-24 16:46 48.55393 2.22451 4390 ft 284 kts 262°
2026-04-24 16:46 48.55277 2.19483 4257 ft 283 kts 276°
2026-04-24 16:46 48.55689 2.16590 4130 ft 281 kts 295°
2026-04-24 16:46 48.56604 2.13996 4004 ft 280 kts 302°
2026-04-24 16:47 48.57557 2.11471 3882 ft 280 kts 302°
2026-04-24 16:47 48.58528 2.08929 3755 ft 276 kts 307°
2026-04-24 16:47 48.59858 2.07041 3630 ft 254 kts 337°
2026-04-24 16:47 48.61473 2.06347 3514 ft 233 kts
2026-04-24 16:48 48.62952 2.06792 3502 ft 206 kts 36°
2026-04-24 16:48 48.63818 2.08361 3509 ft 194 kts 67°
2026-04-24 16:48 48.64396 2.10195 3511 ft 189 kts 63°
2026-04-24 16:48 48.64990 2.11927 3360 ft 185 kts 64°
2026-04-24 16:49 48.65601 2.13694 2985 ft 193 kts 64°
2026-04-24 16:49 48.66239 2.15501 2683 ft 195 kts 63°
2026-04-24 16:49 48.66886 2.17320 2412 ft 197 kts 63°
2026-04-24 16:49 48.67537 2.19147 2137 ft 195 kts 63°
2026-04-24 16:50 48.67958 2.20329 1969 ft 189 kts 63°
2026-04-24 16:50 48.68763 2.22586 1649 ft 172 kts 64°
2026-04-24 16:50 48.69297 2.24087 1444 ft 151 kts 64°
2026-04-24 16:50 48.69769 2.25414 1254 ft 138 kts 64°
2026-04-24 16:51 48.70208 2.26647 1072 ft 130 kts 63°
2026-04-24 16:51 48.70624 2.27820 923 ft 127 kts 62°
2026-04-24 16:51 48.71041 2.29002 753 ft 127 kts 61°
2026-04-24 16:51 48.71453 2.30174 623 ft 126 kts 63°
2026-04-24 16:52 48.71870 2.31353 415 ft 128 kts 61°
2026-04-24 16:52 48.72289 2.32528 298 ft 122 kts 59°
2026-04-24 16:52 48.72626 2.33464 296 ft 77 kts 62°
2026-04-24 16:52 48.72809 2.33965 300 ft 41 kts 62°
2026-04-24 16:53 48.72924 2.34317 296 ft 34 kts 65°
2026-04-24 16:53 48.72996 2.34597 296 ft 27 kts 80°
2026-04-24 16:53 48.73014 2.34794 293 ft 15 kts 82°
2026-04-24 16:53 48.73034 2.34958 293 ft 12 kts 81°
2026-04-24 16:54 48.73045 2.35096 294 ft 14 kts 86°
2026-04-24 16:54 48.73029 2.35193 296 ft 10 kts 121°
2026-04-24 16:54 48.72980 2.35279 296 ft 11 kts 142°
2026-04-24 16:54 48.72916 2.35332 296 ft 10 kts 140°
2026-04-24 16:55 48.72879 2.35419 295 ft 11 kts 138°
2026-04-24 16:55 48.72809 2.35450 294 ft 10 kts 168°
2026-04-24 16:55 48.72754 2.35507 295 ft 9 kts 107°
2026-04-24 16:55 48.72768 2.35614 294 ft 12 kts 73°
2026-04-24 16:56 48.72793 2.35741 295 ft 10 kts 74°
2026-04-24 16:56 48.72788 2.35770 297 ft 3 kts 160°
2026-04-24 16:56 48.72771 2.35780 295 ft 3 kts 160°
2026-04-24 16:56 48.72744 2.35786 294 ft 4 kts 174°
2026-04-24 16:57 48.72741 2.35787 294 ft 0 kts 174°